Weather History for Juliana Airport, Saint Maarten, Saint Maartin

Change the Weather History Date:

Saturday, October 26, 2013

  Actual Average Record
Temperature  
Mean Temperature 85 °F -  
Max Temperature 88 °F 84 °F - ()
Min Temperature 82 °F 74 °F - ()
Cooling Degree Days 20    
Growing Degree Days 35 (Base 50)    
Moisture  
Dew Point 73 °F    
Average Humidity 67    
Maximum Humidity 74    
Minimum Humidity 54    
Precipitation  
Precipitation 0.04 in 0.17 in - ()
Sea Level Pressure  
Sea Level Pressure 29.99 in    
Wind  
Wind Speed 11 mph ()    
Max Wind Speed 15 mph    
Max Gust Speed 24 mph    
Visibility 8.0 miles    
Events      
T = Trace of Precipitation, MM = Missing Value Source: Averaged Metar Reports

Daily Weather History Graph

Daily Weather History Graph

Search for Another Location

Airport:

Trip Planner

Search our weather history database for the weather conditions in past years. The results will help you decide how hot, cold, wet, or windy it might be!

Date:

Astronomy

Oct. 26, 2013 Rise Set
Actual Time 6:09 AM AST 5:43 PM AST
Civil Twilight 5:47 AM AST 6:05 PM AST
Nautical Twilight 5:21 AM AST 6:30 PM AST
Astronomical Twilight 4:55 AM AST 6:56 PM AST
Moon 11:59 PM AST (10/26) 12:15 PM AST (10/26)
Length of Visible Light 12h 18m
Length of Day
11h 33m
Waning Gibbous, 53% of the Moon is Illuminated
Oct 26
Waning Gibbous
Oct 26
Last Quarter
Nov 3
New
Nov 10
First Quarter
Nov 17
Full

Hourly Weather History & Observations

Time (AST) Temp. Heat Index Dew Point Humidity Pressure Visibility Wind Dir Wind Speed Gust Speed Precip Events Conditions
12:00 AM 82.4 °F 88.2 °F 73.4 °F 74% 30.01 in 6.2 mi East 10.4 mph - N/A   Partly Cloudy
1:00 AM 82.4 °F 88.2 °F 73.4 °F 74% 30.01 in 6.2 mi ESE 12.7 mph - N/A   Partly Cloudy
2:00 AM 83 °F - 74 °F 68% 29.99 in 19 mi ESE 12.7 mph - -  
2:00 AM 82.4 °F 88.2 °F 73.4 °F 74% 29.98 in 6.2 mi ESE 12.7 mph - N/A   Partly Cloudy
3:00 AM 82.4 °F 88.2 °F 73.4 °F 74% 29.95 in 6.2 mi ESE 13.8 mph - N/A   Partly Cloudy
4:00 AM 82.4 °F 87.2 °F 71.6 °F 70% 29.95 in 6.2 mi ESE 13.8 mph - N/A   Partly Cloudy
5:00 AM 83 °F - 72 °F 62% 29.95 in 19 mi ESE 13.8 mph - -   Scattered Clouds
5:00 AM 82.4 °F 87.2 °F 71.6 °F 70% 29.95 in 6.2 mi ESE 13.8 mph - N/A   Partly Cloudy
6:00 AM 82.4 °F 88.2 °F 73.4 °F 74% 29.95 in 6.2 mi ESE 11.5 mph - N/A   Partly Cloudy
7:00 AM 82.4 °F 88.2 °F 73.4 °F 74% 29.98 in 6.2 mi ESE 11.5 mph - N/A   Partly Cloudy
8:00 AM 85 °F - 73 °F 59% 30.02 in 19 mi ESE 11.5 mph - -   Scattered Clouds
8:00 AM 84.2 °F 90.9 °F 73.4 °F 70% 30.01 in 6.2 mi ESE 11.5 mph - N/A   Partly Cloudy
9:00 AM 86.0 °F 91.8 °F 71.6 °F 62% 30.04 in 6.2 mi East 15.0 mph - N/A   Partly Cloudy
10:00 AM 86.0 °F 91.8 °F 71.6 °F 62% 30.04 in 6.2 mi East 15.0 mph - N/A   Partly Cloudy
11:00 AM 87 °F - 73 °F 54% 30.04 in 19 mi East 13.8 mph - -   Partly Cloudy
11:00 AM 87.8 °F 95.6 °F 73.4 °F 62% 30.04 in 6.2 mi East 13.8 mph - N/A   Scattered Clouds
12:00 PM 87.8 °F 95.6 °F 73.4 °F 62% 30.01 in 6.2 mi East 13.8 mph - N/A   Scattered Clouds
1:00 PM 87.8 °F 95.6 °F 73.4 °F 62% 29.98 in 6.2 mi East 12.7 mph - N/A   Scattered Clouds
2:00 PM 87 °F - 74 °F 58% 29.96 in 22 mi East 12.7 mph - -   Partly Cloudy
2:00 PM 87.8 °F 95.6 °F 73.4 °F 62% 29.95 in 6.2 mi East 12.7 mph - N/A   Scattered Clouds
3:00 PM 86.0 °F 93.4 °F 73.4 °F 66% 29.95 in 6.2 mi East 13.8 mph - N/A   Scattered Clouds
4:00 PM 86.0 °F 93.4 °F 73.4 °F 66% 29.95 in 6.2 mi East 11.5 mph 24.2 mph N/A   Scattered Clouds
5:00 PM 85 °F - 73 °F 60% 29.96 in 28 mi ESE 11.5 mph - -   Scattered Clouds
5:00 PM 84.2 °F 89.6 °F 71.6 °F 66% 29.95 in 6.2 mi ESE 11.5 mph - N/A   Partly Cloudy
6:00 PM 84.2 °F 90.9 °F 73.4 °F 70% 29.95 in 6.2 mi East 11.5 mph - N/A   Partly Cloudy
7:00 PM 84.2 °F 90.9 °F 73.4 °F 70% 29.98 in 6.2 mi East 10.4 mph - N/A   Partly Cloudy
8:00 PM 83 °F - 74 °F 66% 30.00 in 22 mi East 8.1 mph - -   Scattered Clouds
8:00 PM 82.4 °F 88.2 °F 73.4 °F 74% 29.98 in 6.2 mi East 8.1 mph - N/A   Partly Cloudy
9:00 PM 82.4 °F 88.2 °F 73.4 °F 74% 30.01 in 6.2 mi East 10.4 mph - N/A   Partly Cloudy
10:00 PM 82.4 °F 88.2 °F 73.4 °F 74% 30.01 in 6.2 mi East 11.5 mph - N/A   Scattered Clouds
11:00 PM 83 °F - 73 °F 66% 30.02 in 22 mi ESE 8.1 mph - -   Partly Cloudy
11:00 PM 82.4 °F 88.2 °F 73.4 °F 74% 30.01 in 6.2 mi East 9.2 mph - N/A   Scattered Clouds